Wind_Speed
12 12 11 11 11 10 10 9 8 8 8 7 8 9 10 10 11 13 13 6 2 5 4 2 3 8 2 7 6 5 3 2 4 3 3 12 4 11 4 13 6 9 5 14 28
11 12 12 12 11 12 11 10 9 8 9 9 9 9 10 11 11 14 9 11 9 6 5 3 3 5 3 4 4 3 2 4 5 5 5 13 10 14 5 11 2 8 7 23 30
12 12 12 12 12 11 12 12 10 10 9 9 9 10 10 10 9 1 3 7 8 9 7 2 3 4 2 5 4 4 3 2 5 3 15 12 6 8 9 5 10 17 23 34 31
12 12 12 12 12 12 11 12 12 11 10 9 9 9 9 6 2 3 1 3 5 8 7 2 2 2 2 1 3 1 10 7 4 13 17 8 8 5 14 4 8 14 24 37 34
12 12 12 12 13 12 12 12 12 12 11 9 9 9 9 5 8 5 1 3 5 7 6 3 1 3 2 4 4 3 3 9 13 14 22 14 8 3 5 3 11 19 30 36 35
13 12 13 13 13 12 12 12 12 12 11 10 9 8 7 4 7 11 9 3 6 6 4 4 2 1 1 4 0 5 8 4 5 13 18 12 3 4 4 15 19 23 31 34 36
13 13 14 13 13 13 12 12 12 11 11 10 9 9 12 18 6 8 14 8 5 6 5 4 1 2 5 4 3 7 4 3 2 4 3 8 1 4 15 21 23 27 28 32 34
14 14 14 15 14 13 12 13 12 11 10 9 9 9 10 9 9 14 12 13 7 4 2 3 3 4 3 6 8 4 4 3 3 6 5 7 9 5 22 26 24 25 28 32 35
13 14 15 16 16 14 12 12 12 10 8 7 8 6 10 6 7 12 17 12 8 4 3 4 2 2 0 3 5 6 2 3 6 4 1 3 7 6 26 25 23 24 28 27 32
14 14 14 16 16 14 12 11 8 7 7 7 9 5 7 1 3 3 15 15 8 4 5 6 4 3 4 5 2 1 3 2 3 2 7 7 16 4 19 21 18 24 27 29 30
15 15 15 15 15 14 11 3 2 3 5 8 2 5 6 4 11 2 8 15 10 3 4 3 4 6 9 6 5 2 2 4 5 5 6 10 10 9 16 17 15 24 27 28 32
15 15 15 15 15 12 7 4 6 4 9 12 18 26 26 26 9 4 9 10 5 5 2 3 6 5 9 6 3 2 3 6 9 9 7 5 7 6 7 13 21 23 27 31 30
16 16 14 13 13 6 5 6 4 6 2 10 12 13 14 12 10 14 12 11 4 5 4 6 4 9 7 4 3 2 3 3 5 7 2 2 5 5 5 10 15 24 27 31 33
16 16 14 12 6 4 8 5 7 3 4 6 4 2 9 8 5 15 14 13 2 11 8 5 5 4 3 3 6 6 5 5 5 1 4 2 4 6 4 4 8 17 24 31 35
15 15 14 12 9 0 2 5 2 2 3 2 2 2 8 10 3 9 18 12 8 6 7 7 6 5 4 6 6 4 3 3 4 3 1 5 3 7 5 6 8 12 25 31 32
16 16 14 11 6 5 2 1 3 5 5 6 2 1 4 2 2 6 6 8 5 5 2 7 2 6 9 4 9 2 2 5 4 4 2 2 3 7 3 6 6 4 25 31 30
16 15 12 6 2 8 6 6 5 3 5 5 3 1 4 5 4 4 6 6 6 4 2 2 4 3 4 3 1 5 6 3 4 4 5 1 1 9 5 7 7 8 13 23 27
13 10 5 2 7 8 7 4 2 2 4 5 5 4 5 5 3 2 5 4 1 5 3 6 5 7 3 8 7 5 8 6 5 4 4 1 4 6 5 7 18 15 18 15 20
9 4 4 1 8 9 6 2 6 4 3 8 8 6 5 1 5 4 7 7 9 8 6 5 5 4 5 5 10 4 4 4 7 3 2 3 7 10 5 6 10 17 17 21 20
7 4 6 7 9 8 4 4 4 3 5 4 3 4 5 5 2 3 6 5 8 10 6 4 0 2 0 5 3 6 6 3 3 4 3 5 5 6 7 6 3 7 18 19 16
2 3 4 12 6 2 3 5 5 8 4 2 1 4 4 4 3 5 7 6 7 9 7 6 3 5 2 4 8 2 1 6 5 4 6 4 6 8 10 8 9 8 16 16 15
1 3 7 10 3 2 2 4 4 6 5 7 3 8 5 4 5 5 9 8 19 13 10 7 5 7 11 4 1 3 6 6 5 4 1 3 7 6 10 8 9 18 15 13 14
3 4 9 2 2 2 4 4 5 3 4 4 5 7 3 3 3 6 5 9 10 8 10 8 1 2 10 5 1 4 4 4 5 4 6 5 7 3 6 8 17 18 19 14 9
1 2 3 5 2 2 2 5 4 6 5 7 5 2 2 4 5 5 3 4 3 14 22 16 4 8 8 7 4 4 5 5 6 4 5 7 8 6 8 9 12 21 19 12 8
3 1 2 2 4 4 3 3 4 4 4 4 3 5 2 3 3 3 4 6 6 5 9 8 9 6 7 6 4 3 4 7 7 6 7 7 9 11 9 12 22 23 15 12 13
2 2 1 3 4 4 5 4 3 4 3 4 4 4 8 7 4 4 2 3 2 6 1 2 4 8 5 5 6 4 5 7 4 5 5 2 7 6 14 9 12 24 20 20 22
2 1 2 3 1 3 5 6 4 2 8 15 8 6 7 7 14 2 2 7 6 0 2 3 7 5 7 4 5 3 7 6 3 1 3 4 5 6 7 8 15 21 28 28 26
Wind_Direction
352 352 351 351 349 345 340 336 332 328 325 321 319 312 307 296 283 276 271 259 236 205 214 266 315 335 106 156 152 150 72 151 175 163 238 164 142 164 181 147 157 181 178 170 164
345 346 345 346 345 343 338 335 330 325 319 318 317 315 314 306 287 269 282 261 245 232 247 271 318 16 115 135 164 108 83 220 199 198 183 180 160 171 138 158 114 147 154 167 165
340 341 339 340 339 338 336 333 328 323 317 312 311 314 319 320 307 229 248 237 228 224 237 281 352 25 96 147 175 166 193 232 240 159 162 156 182 176 130 226 204 167 160 168 170
332 335 335 334 335 335 333 330 326 321 314 312 309 312 318 316 196 142 136 173 209 193 204 237 106 30 70 285 170 315 231 247 206 199 162 167 176 198 168 286 246 194 174 171 176
331 330 330 328 329 332 331 328 324 318 313 308 303 304 313 285 246 198 208 105 113 160 197 189 107 127 94 300 317 209 221 244 237 191 177 173 193 169 200 282 169 170 175 179 182
329 329 327 325 325 326 327 324 320 315 308 305 299 298 293 279 239 226 236 187 130 121 164 167 100 53 183 244 304 265 259 224 264 165 176 164 149 160 162 172 173 177 182 190 190
328 326 325 323 322 320 322 319 316 309 303 298 295 291 275 254 254 232 220 209 165 145 140 158 190 330 332 286 223 262 309 121 157 159 147 131 315 237 178 177 181 184 189 198 199
329 326 325 322 320 317 321 316 312 306 300 291 293 293 263 271 251 235 213 214 221 236 222 201 216 292 232 308 346 29 57 106 229 162 198 156 252 221 185 181 188 187 191 199 202
330 326 324 321 317 316 323 316 312 306 293 286 287 280 267 278 274 234 216 225 222 244 223 226 208 208 157 61 11 14 103 42 360 247 55 192 262 224 184 189 196 193 197 198 209
331 328 326 319 315 318 332 321 313 301 281 276 258 292 258 260 13 263 216 217 212 203 195 171 167 93 42 75 226 358 356 325 217 221 185 228 261 232 189 192 203 205 210 208 214
332 329 327 320 317 324 337 342 341 309 261 233 249 251 272 285 303 246 206 203 208 154 158 129 128 189 189 171 178 154 206 276 266 221 225 219 258 243 195 209 203 213 217 219 223
330 328 326 323 320 328 353 76 86 346 307 267 258 258 259 271 294 283 191 184 162 176 156 34 216 212 147 155 138 188 305 288 287 337 174 163 229 270 177 222 214 210 218 227 231
329 327 324 324 322 336 74 106 351 324 271 291 253 253 254 238 228 259 187 173 139 154 173 156 240 161 159 159 85 253 221 249 243 304 36 76 302 283 262 224 217 230 237 237 237
328 328 327 329 329 10 131 15 333 198 50 278 257 266 200 176 242 227 194 180 208 186 149 214 221 169 133 154 125 274 201 249 277 184 239 5 259 287 311 286 226 231 230 241 245
329 327 323 321 309 297 160 345 149 139 6 233 216 135 178 186 156 199 197 178 167 166 121 235 164 152 191 192 165 205 194 263 345 129 194 2 72 270 360 306 248 222 232 240 244
329 322 319 314 299 183 170 103 143 43 256 336 119 111 133 260 271 119 155 190 172 122 82 212 230 162 201 149 196 128 76 41 56 77 49 330 127 290 244 227 289 231 232 243 248
326 317 314 300 139 152 162 159 43 143 333 341 352 43 219 203 233 124 149 151 159 124 260 338 237 251 161 130 148 94 64 339 3 16 219 308 66 239 263 251 234 272 257 247 249
328 324 321 261 184 158 157 56 187 271 268 301 308 301 185 169 226 116 102 161 34 94 116 164 308 176 184 175 175 171 150 157 191 190 249 271 237 247 229 247 257 269 274 259 254
341 352 15 160 166 161 159 85 214 222 312 335 331 42 345 184 174 139 172 190 198 173 164 138 255 270 202 147 138 186 169 178 106 13 69 260 294 306 256 250 266 263 267 265 253
351 67 43 123 141 156 79 238 247 230 334 13 7 6 341 315 106 123 190 212 200 183 158 189 192 257 21 117 63 159 155 85 8 135 215 296 289 237 298 254 243 261 256 264 254
13 94 78 134 130 116 164 234 275 269 290 315 246 302 253 286 233 204 211 252 205 180 152 141 100 289 336 175 165 96 183 55 122 129 171 210 258 217 240 239 264 252 251 258 257
73 71 145 153 55 28 194 206 290 272 285 245 215 217 224 284 273 233 217 226 188 147 157 194 157 233 242 221 42 145 184 141 130 231 155 171 255 230 231 239 251 268 271 282 265
68 90 165 171 140 283 289 284 259 274 249 207 243 216 169 253 302 212 198 246 179 146 160 175 191 22 333 2 89 188 183 130 119 90 190 163 265 309 285 269 236 255 271 289 270
105 83 144 214 231 175 323 280 292 270 253 230 260 202 174 258 214 290 298 284 338 202 187 142 137 164 201 212 169 158 174 167 129 126 168 219 276 268 260 246 263 245 255 271 254
33 42 154 239 268 209 168 286 291 288 243 262 263 242 167 264 252 251 265 305 360 148 153 140 191 173 225 221 207 232 178 171 185 188 165 251 199 256 225 229 238 254 251 242 228
14 34 339 267 281 184 183 244 236 291 254 284 235 301 299 213 213 215 341 36 23 339 97 339 199 158 236 190 221 239 221 196 235 149 262 208 262 262 274 256 238 239 243 235 230
336 279 271 262 263 132 218 225 233 25 276 243 279 321 292 233 282 292 208 263 258 234 287 176 136 123 237 169 117 322 225 195 159 163 185 181 238 333 301 269 252 240 232 230 227
Height
1501 1499 1497 1495 1493 1491 1490 1488 1487 1487 1486 1486 1485 1485 1485 1484 1485 1484 1483 1486 1486 1487 1487 1488 1489 1488 1487 1489 1491 1491 1501 1506 1502 1501 1493 1488 1489 1490 1492 1493 1497 1498 1499 1501 1507
1500 1498 1496 1494 1492 1490 1488 1487 1486 1485 1485 1484 1484 1483 1483 1482 1482 1481 1484 1482 1483 1485 1486 1487 1487 1487 1488 1489 1490 1491 1500 1496 1489 1487 1488 1488 1488 1488 1492 1495 1497 1498 1499 1502 1506
1498 1497 1495 1493 1491 1489 1487 1485 1485 1484 1484 1483 1483 1483 1482 1481 1480 1479 1480 1480 1481 1483 1484 1486 1486 1486 1487 1489 1489 1491 1496 1489 1486 1484 1485 1487 1490 1489 1491 1495 1492 1494 1497 1502 1507
1497 1495 1494 1492 1490 1489 1487 1485 1484 1483 1483 1482 1482 1481 1481 1481 1484 1478 1478 1479 1479 1482 1484 1485 1486 1487 1487 1487 1487 1491 1486 1486 1485 1483 1486 1487 1488 1488 1490 1489 1488 1492 1494 1499 1505
1496 1494 1493 1491 1489 1488 1487 1485 1483 1482 1481 1481 1481 1481 1481 1481 1477 1478 1477 1478 1479 1481 1483 1484 1485 1488 1489 1487 1486 1488 1485 1486 1482 1481 1482 1486 1486 1489 1491 1489 1488 1491 1494 1497 1501
1494 1493 1491 1490 1488 1487 1486 1484 1483 1481 1480 1480 1480 1480 1480 1481 1475 1476 1477 1478 1480 1481 1482 1484 1485 1488 1487 1487 1487 1482 1479 1482 1481 1481 1480 1483 1488 1489 1492 1490 1490 1491 1494 1496 1497
1493 1491 1489 1488 1486 1485 1484 1483 1481 1480 1479 1479 1478 1478 1478 1471 1472 1473 1475 1478 1479 1481 1482 1484 1486 1487 1486 1485 1485 1482 1483 1480 1482 1483 1483 1484 1491 1489 1487 1489 1490 1491 1494 1496 1500
1491 1489 1487 1485 1484 1482 1481 1479 1478 1478 1477 1477 1477 1477 1471 1468 1469 1471 1473 1475 1478 1480 1482 1483 1484 1485 1485 1484 1482 1484 1485 1497 1484 1483 1483 1486 1499 1486 1485 1486 1488 1492 1492 1493 1497
1489 1487 1485 1483 1481 1479 1479 1477 1476 1475 1475 1475 1476 1475 1469 1467 1467 1469 1471 1474 1477 1479 1481 1482 1483 1484 1486 1489 1498 1496 1504 1499 1493 1485 1487 1489 1489 1479 1483 1485 1486 1490 1490 1492 1495
1488 1486 1484 1481 1479 1477 1477 1475 1474 1474 1474 1474 1474 1477 1468 1467 1466 1466 1468 1473 1476 1478 1480 1481 1483 1488 1491 1498 1519 1507 1505 1499 1501 1487 1489 1491 1486 1480 1484 1484 1485 1486 1487 1490 1491
1486 1484 1482 1480 1478 1476 1476 1474 1477 1475 1472 1470 1470 1468 1466 1466 1466 1466 1467 1471 1474 1477 1481 1479 1489 1497 1489 1490 1492 1493 1498 1501 1488 1483 1485 1485 1485 1479 1481 1483 1483 1483 1484 1485 1486
1485 1482 1481 1479 1477 1476 1475 1475 1476 1479 1472 1466 1465 1464 1464 1466 1469 1465 1467 1471 1472 1479 1479 1484 1492 1482 1483 1486 1489 1493 1497 1498 1484 1474 1480 1479 1482 1476 1476 1474 1476 1477 1479 1480 1482
1483 1481 1479 1478 1476 1476 1476 1477 1477 1477 1476 1461 1460 1459 1460 1463 1464 1463 1466 1467 1471 1478 1481 1490 1482 1478 1482 1485 1489 1493 1497 1495 1496 1483 1479 1482 1489 1481 1471 1472 1474 1474 1475 1477 1477
1482 1480 1478 1477 1478 1476 1477 1477 1476 1475 1484 1465 1458 1455 1456 1459 1459 1458 1462 1466 1470 1476 1481 1482 1475 1476 1480 1483 1488 1501 1485 1486 1489 1494 1508 1487 1517 1486 1476 1474 1471 1470 1472 1471 1471
1481 1479 1477 1476 1476 1477 1478 1476 1475 1476 1500 1457 1454 1454 1454 1457 1454 1454 1458 1462 1468 1471 1476 1480 1476 1478 1482 1481 1481 1491 1480 1483 1485 1495 1497 1497 1511 1490 1478 1473 1467 1465 1465 1465 1466
1479 1477 1474 1474 1474 1476 1476 1476 1477 1489 1494 1461 1454 1455 1457 1454 1453 1453 1457 1461 1463 1467 1471 1473 1469 1471 1472 1473 1475 1479 1484 1491 1498 1506 1520 1506 1512 1499 1484 1471 1461 1457 1460 1460 1463
1476 1474 1472 1472 1473 1474 1475 1477 1492 1498 1465 1464 1460 1454 1457 1457 1454 1451 1457 1463 1471 1485 1484 1474 1471 1467 1467 1475 1476 1480 1498 1527 1524 1529 1528 1509 1511 1493 1468 1463 1458 1455 1455 1455 1458
1473 1471 1471 1472 1473 1474 1475 1480 1494 1477 1474 1462 1458 1456 1459 1454 1454 1454 1460 1469 1465 1471 1492 1493 1496 1468 1462 1469 1478 1484 1494 1525 1529 1535 1522 1509 1507 1483 1461 1456 1457 1456 1454 1454 1453
1472 1471 1471 1471 1472 1474 1477 1495 1489 1479 1469 1468 1462 1464 1461 1452 1453 1454 1461 1467 1463 1464 1480 1492 1485 1459 1459 1459 1465 1483 1495 1483 1517 1525 1526 1514 1492 1467 1458 1457 1454 1453 1451 1448 1449
1472 1471 1472 1472 1474 1476 1480 1490 1481 1473 1470 1469 1474 1468 1472 1462 1458 1462 1464 1452 1455 1456 1457 1469 1481 1460 1454 1456 1462 1467 1470 1495 1508 1523 1523 1520 1508 1497 1467 1458 1455 1451 1448 1445 1446
1472 1472 1475 1475 1477 1478 1488 1487 1477 1471 1471 1471 1471 1471 1468 1465 1458 1463 1457 1448 1444 1451 1455 1466 1477 1472 1461 1463 1470 1475 1480 1489 1496 1506 1520 1527 1512 1469 1461 1456 1452 1447 1445 1444 1444
1472 1475 1477 1478 1480 1483 1485 1480 1474 1468 1468 1469 1467 1467 1464 1460 1459 1459 1454 1441 1433 1439 1458 1458 1474 1486 1476 1456 1456 1458 1468 1477 1499 1501 1513 1510 1499 1452 1450 1449 1448 1443 1442 1443 1443
1473 1476 1478 1479 1485 1485 1479 1476 1472 1467 1464 1464 1463 1459 1457 1459 1463 1449 1443 1429 1433 1436 1448 1454 1477 1492 1481 1467 1461 1461 1465 1470 1480 1490 1506 1507 1485 1450 1450 1448 1442 1442 1439 1441 1442
1476 1479 1479 1480 1480 1481 1479 1476 1472 1463 1462 1459 1457 1455 1456 1458 1451 1448 1441 1431 1429 1430 1431 1439 1468 1471 1486 1472 1458 1459 1460 1465 1470 1492 1497 1490 1471 1455 1449 1447 1441 1438 1438 1440 1442
1476 1478 1478 1480 1479 1478 1478 1476 1472 1469 1459 1456 1455 1453 1453 1459 1450 1446 1441 1435 1428 1427 1431 1434 1457 1462 1457 1454 1453 1448 1450 1462 1465 1466 1473 1463 1471 1448 1444 1440 1434 1436 1438 1438 1440
1478 1478 1478 1477 1475 1476 1477 1473 1470 1465 1463 1457 1455 1449 1450 1456 1441 1443 1441 1439 1439 1433 1434 1436 1450 1454 1455 1453 1451 1451 1447 1453 1454 1459 1460 1458 1462 1444 1438 1435 1433 1432 1435 1434 1435
1478 1478 1478 1475 1474 1476 1473 1467 1464 1464 1456 1454 1452 1452 1447 1443 1440 1433 1436 1437 1440 1438 1441 1442 1449 1460 1464 1453 1456 1466 1451 1448 1448 1448 1448 1454 1447 1441 1437 1434 1430 1429 1429 1427 1429